Location: Bronnegerveen
(52.9548°N, 6.8388°E)
Time: 01:45:21
(UTC+00:00)

ADEOS II - Pass Details

Date: 15 June 2025
Orbit: 794 x 796 km, 98.7° (Epoch: 07 July)

Event Time Altitude Azimuth Distance (km) Brightness Sun altitude
Rises 00:46:31 0° 28° (NNE) 3,309 7.2 -12.1°
Reaches altitude 10° 00:49:56 10° 51° (NE) 2,373 5.5 -11.9°
Maximum altitude 00:52:54 15° 86° (E) 2,029 4.5 -11.8°
Drops below altitude 10° 00:55:52 10° 121° (ESE) 2,363 4.4 -11.6°
Sets 00:59:14 0° 144° (SE) 3,287 4.9 -11.5°
